This demonstration page uses our WeatherBlox Daily Observations layout. Learn more.

Left ArrowRight Arrow

Hourly Observations for January 3, 2022

Temp ( °F °C ) Dew Point ( °F °C ) Humidity (%) Winds ( mph kmh ) Pressure ( in mb ) Visibility ( mi km ) Precip ( " mm )
12:53 am 00:53 Clear 28 -2.2 20 -6.7 72 72 Calm 30.48 1032 10 16 0.00 0.00
1:53 am 01:53 Clear 29 -1.7 20 -6.7 69 69 Calm 30.48 1032 10 16 0.00 0.00
2:53 am 02:53 Clear 29 -1.7 21 -6.1 72 72 Calm 30.47 1032 10 16 0.00 0.00
3:53 am 03:53 Clear 27 -2.8 21 -6.1 78 78 Calm 30.47 1032 10 16 0.00 0.00
4:53 am 04:53 Clear 25 -3.9 21 -6.1 85 85 Calm 30.46 1032 10 16 0.00 0.00
5:53 am 05:53 Clear 26 -3.3 21 -6.1 81 81 SW 3 6 30.48 1032 10 16 0.00 0.00
6:53 am 06:53 Clear 28 -2.2 23 -5 81 81 Calm 30.49 1032 10 16 0.00 0.00
7:53 am 07:53 Mostly Sunny 27 -2.8 23 -5 85 85 Calm 30.49 1033 10 16 0.00 0.00
8:53 am 08:53 Mostly Sunny 32 0 24 -4.4 73 73 SW 3 6 30.50 1033 10 16 0.00 0.00
9:53 am 09:53 Mostly Sunny 37 2.8 22 -5.6 54 54 SSE 6 9 30.51 1033 10 16 0.00 0.00
10:53 am 10:53 Sunny 41 5 21 -6.1 45 45 S 7 11 30.50 1033 10 16 0.00 0.00
11:09 am 11:09 Mostly Sunny 42 5.6 20 -6.7 41 41 Calm 30.50 1033 10 16 0.00 0.00
11:53 am 11:53 Sunny 46 7.8 18 -7.8 32 32 SSE 7 11 30.46 1031 10 16 0.00 0.00
12:53 pm 12:53 Sunny 50 10 19 -7.2 29 29 S 8 13 30.41 1030 10 16 0.00 0.00
1:53 pm 13:53 Sunny 52 11.1 18 -7.8 26 26 S 7 11 30.38 1029 10 16 0.00 0.00
2:53 pm 14:53 Sunny 53 11.7 17 -8.3 24 24 S 5 7 30.36 1028 10 16 0.00 0.00
3:53 pm 15:53 Mostly Sunny 53 11.7 19 -7.2 26 26 SSE 9 15 30.34 1028 10 16 0.00 0.00
4:53 pm 16:53 Mostly Sunny 52 11.1 18 -7.8 26 26 SSE 9 15 30.33 1027 10 16 0.00 0.00
5:53 pm 17:53 Mostly Clear 50 10 17 -8.3 27 27 SSE 8 13 30.33 1027 10 16 0.00 0.00
6:53 pm 18:53 Mostly Clear 48 8.9 20 -6.7 33 33 SE 13 20 30.33 1027 10 16 0.00 0.00
7:53 pm 19:53 Partly Cloudy 46 7.8 21 -6.1 37 37 SE 10 17 30.33 1027 10 16 0.00 0.00
8:53 pm 20:53 Mostly Cloudy 44 6.7 21 -6.1 40 40 SE 6 9 30.32 1027 10 16 0.00 0.00
9:53 pm 21:53 Mostly Cloudy 43 6.1 20 -6.7 40 40 SSE 10 17 30.31 1026 10 16 0.00 0.00
10:53 pm 22:53 Mostly Cloudy 43 6.1 20 -6.7 40 40 SSE 12 19 30.30 1026 10 16 0.00 0.00
11:53 pm 23:53 Mostly Cloudy 41 5 19 -7.2 41 41 SSE 13 20 30.29 1026 10 16 0.00 0.00

Powered by AerisWeather